Home > Weather > Cúcuta > Past weeks

Flag for Colombia Weather for the Past 2 Weeks in Cúcuta, Colombia

Now
86 °F

Broken clouds.


Feels Like: 89 °F
Forecast: 78 / 96 °F
Wind: 22 mph from South

Location: Cucuta / Camilo Daza

Current Time: Apr 30, 2016 at 11:12:19 AM

Latest Report: Apr 30, 2016 at 11:00 AM


Visibility: N/A

Pressure: 29.89 "Hg

Humidity: 55%

Dew Point: 68 °F

Location of CúcutaLocation

Historic Weather in Cúcuta — Graph

°F

Cúcuta Temperature Yesterday

Maximum temperature yesterday: 91 °F (at 2:00 PM)
Minimum temperature yesterday: 77 °F (at 6:00 AM)
Average temperature yesterday: 84 °F

High & Low Weather Summary for the Past Weeks

 TemperatureHumidityPressure
High95 °F (Apr 21, 2:00 PM)94% (Apr 16, 5:00 AM)29.98 "Hg (Apr 16, 5:00 AM)
Low75 °F (Apr 18, 5:00 AM)41% (Apr 23, 12:00 PM)29.56 "Hg (Apr 22, 1:00 PM)
Average84 °F69%29.88 "Hg
* Reported Apr 15 10:00 AM — Apr 30 10:00 AM, Cúcuta, Weather by CustomWeather, © 2016

Note: Actual official high and low records may vary slightly from our data, if they occured in-between our weather recording intervals... More about our weather records

Advertising

Cúcuta Weather History for the Previous 24 Hours

Scroll right to see more
 ConditionsComfort  
Time TempWeatherWind HumidityBarometerVisibility
10:00 AM
Sat, Apr 30
82 °FBroken clouds.18 mph62%29.91 "HgN/A
9:00 AM82 °FBroken clouds.16 mph62%29.91 "HgN/A
8:00 AM82 °FBroken clouds.17 mph62%29.90 "HgN/A
7:00 AM82 °FPartly sunny.21 mph62%29.87 "HgN/A
6:00 AM81 °FPartly sunny.18 mph66%29.85 "HgN/A
5:00 AM81 °FPassing clouds.20 mph66%29.84 "HgN/A
12:00 AM82 °FPassing clouds.10 mph62%29.89 "HgN/A
11:00 PM
Fri, Apr 29
82 °FPassing clouds.17 mph62%29.91 "HgN/A
10:00 PM82 °FPassing clouds.21 mph62%29.90 "HgN/A
9:00 PM82 °FPassing clouds.17 mph62%29.89 "HgN/A
8:00 PM84 °FPassing clouds.22 mph55%29.88 "HgN/A
7:00 PM84 °FPassing clouds.20 mph55%29.86 "HgN/A
6:00 PM84 °FPassing clouds.15 mph58%29.85 "HgN/A
5:00 PM86 °FScattered clouds.18 mph55%29.82 "HgN/A
4:00 PM88 °FScattered clouds.18 mph55%29.80 "HgN/A
3:00 PM90 °FScattered clouds.14 mph49%29.81 "HgN/A
2:00 PM91 °FScattered clouds.7 mph49%29.83 "HgN/A
1:00 PM90 °FScattered clouds.6 mph59%29.86 "HgN/A
12:00 PM88 °FScattered clouds.5 mph59%29.89 "HgN/A
11:00 AM88 °FScattered clouds.18 mph52%29.92 "HgN/A
Weather by CustomWeather, © 2016

See weather overviewHow to use our weather pages